Find Kosmos-2401

NORAD ID: 27869 Int'l Des: 2003-037 Owner: KVR Country: RU operational
LEOCIRCULARPOLAR

リアルタイム位置

3D地球を読み込み中...

Kosmos-2401について

説明を読み込み中...

次回通過

Passes for default location (London). Set your location on the main map for personalized predictions.

高度履歴

Loading altitude history...

軌道要素

1 27869U 03037B 26104.56727094 -.00000059 00000-0 -47768-3 0 9999
2 27869 82.4758 6.1508 0021734 187.6599 172.4153 12.45501202 29859
Epoch: Apr 14, 2026 • Age: 8 hours

現在のステータス

高度 1493.4 km
速度 7.12 km/s
衛星直下点 73.11°N, 11.16°W
打ち上げ日 Aug 19, 2003
運用期間 22.6 years
タイプ other

技術仕様

分類 Payload
質量 225.00 kg
乾燥質量 225.00 kg
総質量 225.00 kg
長さ 1.60 m
直径 0.80 m
スパン 7.00 m
形状 Cyl + Ant
製造者 NPOPMR
バスタイプ Strela-3
フェーズステータス In Orbit
所有者/国 KVR/RU

Most Searched